Year,Month,Day,Hour,Minute,Value (Times are PST for temperature in C)
2020,02,01,00,00,10.70
2020,02,01,00,01,10.70
2020,02,01,00,02,10.70
2020,02,01,00,03,10.70
2020,02,01,00,04,10.70
2020,02,01,00,05,10.70
2020,02,01,00,06,10.70
2020,02,01,00,07,10.70
2020,02,01,00,08,10.70
2020,02,01,00,09,10.70
2020,02,01,00,10,10.60
2020,02,01,00,11,10.70
2020,02,01,00,12,10.60
2020,02,01,00,13,10.60
2020,02,01,00,14,10.60
2020,02,01,00,15,10.60
2020,02,01,00,16,10.60
2020,02,01,00,17,10.60
2020,02,01,00,18,10.60
2020,02,01,00,19,10.60
2020,02,01,00,20,10.60
2020,02,01,00,21,10.60
2020,02,01,00,22,10.60
2020,02,01,00,23,10.60
2020,02,01,00,24,10.60
2020,02,01,00,25,10.60
2020,02,01,00,26,10.60
2020,02,01,00,27,10.60
2020,02,01,00,28,10.60
2020,02,01,00,29,10.60
2020,02,01,00,30,10.60
2020,02,01,00,31,10.60
2020,02,01,00,32,10.60
2020,02,01,00,33,10.70
2020,02,01,00,34,10.70
2020,02,01,00,35,10.80
2020,02,01,00,36,10.80
2020,02,01,00,37,10.80
2020,02,01,00,38,10.80
2020,02,01,00,39,10.80
2020,02,01,00,40,10.80
2020,02,01,00,41,10.80
2020,02,01,00,42,10.80
2020,02,01,00,43,10.80
2020,02,01,00,44,10.80
2020,02,01,00,45,10.80
2020,02,01,00,46,10.80
2020,02,01,00,47,10.80
2020,02,01,00,48,10.80
2020,02,01,00,49,10.80
2020,02,01,00,50,10.80
2020,02,01,00,51,10.80
2020,02,01,00,52,10.80
2020,02,01,00,53,10.90
2020,02,01,00,54,10.90
2020,02,01,00,55,10.90
2020,02,01,00,56,10.90
2020,02,01,00,57,10.90
2020,02,01,00,58,10.90
2020,02,01,00,59,10.80
2020,02,01,01,00,10.80
2020,02,01,01,01,10.80
2020,02,01,01,02,10.90
2020,02,01,01,03,10.90
2020,02,01,01,04,10.90
2020,02,01,01,05,10.90
2020,02,01,01,06,10.90
2020,02,01,01,07,10.90
2020,02,01,01,08,10.90
2020,02,01,01,09,10.90
2020,02,01,01,10,11.00
2020,02,01,01,11,11.00
2020,02,01,01,12,11.00
2020,02,01,01,13,10.90
2020,02,01,01,14,10.90
2020,02,01,01,15,11.00
2020,02,01,01,16,11.00
2020,02,01,01,17,10.90
2020,02,01,01,18,10.90
2020,02,01,01,19,10.90
2020,02,01,01,20,11.00
2020,02,01,01,21,10.90
2020,02,01,01,22,10.90
2020,02,01,01,23,10.90
2020,02,01,01,24,10.90
2020,02,01,01,25,11.00
2020,02,01,01,26,11.00
2020,02,01,01,27,11.10
2020,02,01,01,28,11.10
2020,02,01,01,29,11.10
2020,02,01,01,30,11.10
2020,02,01,01,31,11.10
2020,02,01,01,32,11.10
2020,02,01,01,33,11.10
2020,02,01,01,34,11.10
2020,02,01,01,35,11.20
2020,02,01,01,36,11.20
2020,02,01,01,37,11.10
2020,02,01,01,38,11.10
2020,02,01,01,39,11.10
2020,02,01,01,40,11.10
2020,02,01,01,41,11.10
2020,02,01,01,42,11.10
2020,02,01,01,43,11.10
2020,02,01,01,44,11.10
2020,02,01,01,45,11.10
2020,02,01,01,46,11.10
2020,02,01,01,47,11.00
2020,02,01,01,48,11.00
2020,02,01,01,49,11.00
2020,02,01,01,50,11.00
2020,02,01,01,51,11.00
2020,02,01,01,52,10.90
2020,02,01,01,53,10.90
2020,02,01,01,54,10.90
2020,02,01,01,55,10.90
2020,02,01,01,56,10.90
2020,02,01,01,57,10.90
2020,02,01,01,58,10.90
2020,02,01,01,59,11.00
2020,02,01,02,00,11.00
2020,02,01,02,01,11.10
2020,02,01,02,02,11.10
2020,02,01,02,03,11.10
2020,02,01,02,04,11.10
2020,02,01,02,05,11.10
2020,02,01,02,06,11.10
2020,02,01,02,07,11.00
2020,02,01,02,08,11.00
2020,02,01,02,09,11.00
2020,02,01,02,10,11.00
2020,02,01,02,11,11.00
2020,02,01,02,12,10.90
2020,02,01,02,13,10.90
2020,02,01,02,14,10.90
2020,02,01,02,15,10.90
2020,02,01,02,16,10.90
2020,02,01,02,17,10.90
2020,02,01,02,18,10.80
2020,02,01,02,19,10.90
2020,02,01,02,20,10.80
2020,02,01,02,21,10.80
2020,02,01,02,22,10.80
2020,02,01,02,23,10.80
2020,02,01,02,24,10.80
2020,02,01,02,25,10.80
2020,02,01,02,26,10.80
2020,02,01,02,27,10.80
2020,02,01,02,28,10.80
2020,02,01,02,29,10.80
2020,02,01,02,30,10.80
2020,02,01,02,31,10.80
2020,02,01,02,32,10.80
2020,02,01,02,33,10.80
2020,02,01,02,34,10.80
2020,02,01,02,35,10.80
2020,02,01,02,36,10.80
2020,02,01,02,37,10.80
2020,02,01,02,38,10.80
2020,02,01,02,39,10.80
2020,02,01,02,40,10.90
2020,02,01,02,41,10.90
2020,02,01,02,42,10.90
2020,02,01,02,43,10.90
2020,02,01,02,44,11.00
2020,02,01,02,45,11.00
2020,02,01,02,46,11.00
2020,02,01,02,47,11.00
2020,02,01,02,48,11.00
2020,02,01,02,49,11.00
2020,02,01,02,50,11.00
2020,02,01,02,51,11.00
2020,02,01,02,52,10.90
2020,02,01,02,53,10.90
2020,02,01,02,54,10.90
2020,02,01,02,55,10.90
2020,02,01,02,56,10.90
2020,02,01,02,57,11.00
2020,02,01,02,58,11.00
2020,02,01,02,59,11.00
2020,02,01,03,00,10.90
2020,02,01,03,01,10.90
2020,02,01,03,02,10.90
2020,02,01,03,03,10.90
2020,02,01,03,04,10.90
2020,02,01,03,05,10.90
2020,02,01,03,06,10.90
2020,02,01,03,07,10.90
2020,02,01,03,08,10.90
2020,02,01,03,09,10.90
2020,02,01,03,10,10.90
2020,02,01,03,11,10.90
2020,02,01,03,12,10.90
2020,02,01,03,13,10.90
2020,02,01,03,14,10.90
2020,02,01,03,15,10.90
2020,02,01,03,16,10.90
2020,02,01,03,17,10.80
2020,02,01,03,18,10.80
2020,02,01,03,19,10.80
2020,02,01,03,20,10.80
2020,02,01,03,21,10.80
2020,02,01,03,22,10.80
2020,02,01,03,23,10.80
2020,02,01,03,24,10.80
2020,02,01,03,25,10.80
2020,02,01,03,26,10.80
2020,02,01,03,27,10.80
2020,02,01,03,28,10.80
2020,02,01,03,29,10.80
2020,02,01,03,30,10.80
2020,02,01,03,31,10.80
2020,02,01,03,32,10.90
2020,02,01,03,33,10.90
2020,02,01,03,34,10.90
2020,02,01,03,35,10.90
2020,02,01,03,36,10.90
2020,02,01,03,37,10.90
2020,02,01,03,38,10.90
2020,02,01,03,39,10.90
2020,02,01,03,40,10.90
2020,02,01,03,41,10.90
2020,02,01,03,42,10.80
2020,02,01,03,43,10.90
2020,02,01,03,44,10.90
2020,02,01,03,45,10.90
2020,02,01,03,46,10.90
2020,02,01,03,47,10.90
2020,02,01,03,48,10.80
2020,02,01,03,49,10.80
2020,02,01,03,50,10.80
2020,02,01,03,51,10.80
2020,02,01,03,52,10.80
2020,02,01,03,53,10.80
2020,02,01,03,54,10.80
2020,02,01,03,55,10.80
2020,02,01,03,56,10.80
2020,02,01,03,57,10.90
2020,02,01,03,58,10.90
2020,02,01,03,59,10.80
2020,02,01,04,00,10.80
2020,02,01,04,01,10.80
2020,02,01,04,02,10.80
2020,02,01,04,03,10.80
2020,02,01,04,04,10.80
2020,02,01,04,05,10.80
2020,02,01,04,06,10.80
2020,02,01,04,07,10.90
2020,02,01,04,08,10.90
2020,02,01,04,09,10.90
2020,02,01,04,10,10.90
2020,02,01,04,11,10.90
2020,02,01,04,12,10.90
2020,02,01,04,13,10.90
2020,02,01,04,14,10.80
2020,02,01,04,15,10.80
2020,02,01,04,16,10.80
2020,02,01,04,17,10.80
2020,02,01,04,18,10.80
2020,02,01,04,19,10.80
2020,02,01,04,20,10.80
2020,02,01,04,21,10.80
2020,02,01,04,22,10.80
2020,02,01,04,23,10.80
2020,02,01,04,24,10.80
2020,02,01,04,25,10.80
2020,02,01,04,26,10.80
2020,02,01,04,27,10.80
2020,02,01,04,28,10.80
2020,02,01,04,29,10.80
2020,02,01,04,30,10.80
2020,02,01,04,31,10.80
2020,02,01,04,32,10.80
2020,02,01,04,33,10.70
2020,02,01,04,34,10.70
2020,02,01,04,35,10.70
2020,02,01,04,36,10.70
2020,02,01,04,37,10.70
2020,02,01,04,38,10.60
2020,02,01,04,39,10.60
2020,02,01,04,40,10.60
2020,02,01,04,41,10.60
2020,02,01,04,42,10.50
2020,02,01,04,43,10.50
2020,02,01,04,44,10.50
2020,02,01,04,45,10.50
2020,02,01,04,46,10.40
2020,02,01,04,47,10.40
2020,02,01,04,48,10.40
2020,02,01,04,49,10.40
2020,02,01,04,50,10.40
2020,02,01,04,51,10.40
2020,02,01,04,52,10.40
2020,02,01,04,53,10.40
2020,02,01,04,54,10.40
2020,02,01,04,55,10.40
2020,02,01,04,56,10.40
2020,02,01,04,57,10.40
2020,02,01,04,58,10.40
2020,02,01,04,59,10.40
2020,02,01,05,00,10.40
2020,02,01,05,01,10.40
2020,02,01,05,02,10.40
2020,02,01,05,03,10.40
2020,02,01,05,04,10.40
2020,02,01,05,05,10.40
2020,02,01,05,06,10.40
2020,02,01,05,07,10.40
2020,02,01,05,08,10.30
2020,02,01,05,09,10.30
2020,02,01,05,10,10.30
2020,02,01,05,11,10.30
2020,02,01,05,12,10.30
2020,02,01,05,13,10.30
2020,02,01,05,14,10.40
2020,02,01,05,15,10.40
2020,02,01,05,16,10.40
2020,02,01,05,17,10.40
2020,02,01,05,18,10.40
2020,02,01,05,19,10.40
2020,02,01,05,20,10.50
2020,02,01,05,21,10.50
2020,02,01,05,22,10.50
2020,02,01,05,23,10.60
2020,02,01,05,24,10.60
2020,02,01,05,25,10.60
2020,02,01,05,26,10.60
2020,02,01,05,27,10.70
2020,02,01,05,28,10.70
2020,02,01,05,29,10.70
2020,02,01,05,30,10.70
2020,02,01,05,31,10.70
2020,02,01,05,32,10.70
2020,02,01,05,33,10.70
2020,02,01,05,34,10.70
2020,02,01,05,35,10.70
2020,02,01,05,36,10.70
2020,02,01,05,37,10.60
2020,02,01,05,38,10.60
2020,02,01,05,39,10.60
2020,02,01,05,40,10.60
2020,02,01,05,41,10.70
2020,02,01,05,42,10.70
2020,02,01,05,43,10.70
2020,02,01,05,44,10.70
2020,02,01,05,45,10.80
2020,02,01,05,46,10.80
2020,02,01,05,47,10.90
2020,02,01,05,48,10.90
2020,02,01,05,49,10.90
2020,02,01,05,50,10.90
2020,02,01,05,51,10.80
2020,02,01,05,52,10.80
2020,02,01,05,53,10.80
2020,02,01,05,54,10.80
2020,02,01,05,55,10.70
2020,02,01,05,56,10.70
2020,02,01,05,57,10.70
2020,02,01,05,58,10.70
2020,02,01,05,59,10.70
2020,02,01,06,00,10.70
2020,02,01,06,01,10.70
2020,02,01,06,02,10.70
2020,02,01,06,03,10.60
2020,02,01,06,04,10.60
2020,02,01,06,05,10.60
2020,02,01,06,06,10.60
2020,02,01,06,07,10.60
2020,02,01,06,08,10.50
2020,02,01,06,09,10.50
2020,02,01,06,10,10.50
2020,02,01,06,11,10.50
2020,02,01,06,12,10.50
2020,02,01,06,13,10.50
2020,02,01,06,14,10.60
2020,02,01,06,15,10.60
2020,02,01,06,16,10.50
2020,02,01,06,17,10.50
2020,02,01,06,18,10.50
2020,02,01,06,19,10.40
2020,02,01,06,20,10.40
2020,02,01,06,21,10.40
2020,02,01,06,22,10.40
2020,02,01,06,23,10.40
2020,02,01,06,24,10.40
2020,02,01,06,25,10.30
2020,02,01,06,26,10.30
2020,02,01,06,27,10.20
2020,02,01,06,28,10.20
2020,02,01,06,29,10.10
2020,02,01,06,30,10.10
2020,02,01,06,31,10.00
2020,02,01,06,32,10.00
2020,02,01,06,33,9.90
2020,02,01,06,34,9.90
2020,02,01,06,35,9.80
2020,02,01,06,36,9.80
2020,02,01,06,37,9.70
2020,02,01,06,38,9.70
2020,02,01,06,39,9.70
2020,02,01,06,40,9.70
2020,02,01,06,41,9.60
2020,02,01,06,42,9.50
2020,02,01,06,43,9.40
2020,02,01,06,44,9.30
2020,02,01,06,45,9.20
2020,02,01,06,46,9.10
2020,02,01,06,47,9.10
2020,02,01,06,48,9.10
2020,02,01,06,49,9.00
2020,02,01,06,50,8.90
2020,02,01,06,51,8.80
2020,02,01,06,52,8.90
2020,02,01,06,53,8.90
2020,02,01,06,54,8.80
2020,02,01,06,55,8.80
2020,02,01,06,56,8.70
2020,02,01,06,57,8.60
2020,02,01,06,58,8.60
2020,02,01,06,59,8.50
2020,02,01,07,00,8.50
2020,02,01,07,01,8.50
2020,02,01,07,02,8.40
2020,02,01,07,03,8.40
2020,02,01,07,04,8.40
2020,02,01,07,05,8.30
2020,02,01,07,06,8.30
2020,02,01,07,07,8.30
2020,02,01,07,08,8.20
2020,02,01,07,09,8.20
2020,02,01,07,10,8.20
2020,02,01,07,11,8.20
2020,02,01,07,12,8.20
2020,02,01,07,13,8.30
2020,02,01,07,14,8.30
2020,02,01,07,15,8.30
2020,02,01,07,16,8.40
2020,02,01,07,17,8.40
2020,02,01,07,18,8.40
2020,02,01,07,19,8.30
2020,02,01,07,20,8.30
2020,02,01,07,21,8.30
2020,02,01,07,22,8.30
2020,02,01,07,23,8.30
2020,02,01,07,24,8.30
2020,02,01,07,25,8.20
2020,02,01,07,26,8.20
2020,02,01,07,27,8.20
2020,02,01,07,28,8.10
2020,02,01,07,29,8.10
2020,02,01,07,30,8.10
2020,02,01,07,31,8.00
2020,02,01,07,32,8.00
2020,02,01,07,33,8.00
2020,02,01,07,34,7.90
2020,02,01,07,35,7.90
2020,02,01,07,36,7.90
2020,02,01,07,37,7.90
2020,02,01,07,38,7.80
2020,02,01,07,39,7.80
2020,02,01,07,40,7.80
2020,02,01,07,41,7.80
2020,02,01,07,42,7.80
2020,02,01,07,43,7.70
2020,02,01,07,44,7.70
2020,02,01,07,45,7.70
2020,02,01,07,46,7.70
2020,02,01,07,47,7.70
2020,02,01,07,48,7.60
2020,02,01,07,49,7.60
2020,02,01,07,50,7.60
2020,02,01,07,51,7.60
2020,02,01,07,52,7.60
2020,02,01,07,53,7.60
2020,02,01,07,54,7.60
2020,02,01,07,55,7.60
2020,02,01,07,56,7.60
2020,02,01,07,57,7.60
2020,02,01,07,58,7.70
2020,02,01,07,59,7.70
2020,02,01,08,00,7.80
2020,02,01,08,01,7.80
2020,02,01,08,02,7.80
2020,02,01,08,03,7.80
2020,02,01,08,04,7.90
2020,02,01,08,05,7.90
2020,02,01,08,06,7.90
2020,02,01,08,07,8.00
2020,02,01,08,08,8.00
2020,02,01,08,09,8.00
2020,02,01,08,10,8.00
2020,02,01,08,11,8.00
2020,02,01,08,12,7.90
2020,02,01,08,13,8.00
2020,02,01,08,14,8.00
2020,02,01,08,15,8.00
2020,02,01,08,16,7.90
2020,02,01,08,17,7.90
2020,02,01,08,18,7.90
2020,02,01,08,19,7.90
2020,02,01,08,20,7.90
2020,02,01,08,21,7.90
2020,02,01,08,22,7.90
2020,02,01,08,23,7.90
2020,02,01,08,24,7.80
2020,02,01,08,25,7.80
2020,02,01,08,26,7.80
2020,02,01,08,27,7.80
2020,02,01,08,28,7.80
2020,02,01,08,29,7.80
2020,02,01,08,30,7.80
2020,02,01,08,31,7.80
2020,02,01,08,32,7.80
2020,02,01,08,33,7.80
2020,02,01,08,34,7.80
2020,02,01,08,35,7.80
2020,02,01,08,36,7.80
2020,02,01,08,37,7.90
2020,02,01,08,38,8.00
2020,02,01,08,39,8.00
2020,02,01,08,40,8.10
2020,02,01,08,41,8.10
2020,02,01,08,42,8.10
2020,02,01,08,43,8.10
2020,02,01,08,44,8.20
2020,02,01,08,45,8.10
2020,02,01,08,46,8.10
2020,02,01,08,47,8.10
2020,02,01,08,48,8.10
2020,02,01,08,49,8.10
2020,02,01,08,50,8.10
2020,02,01,08,51,8.00
2020,02,01,08,52,8.00
2020,02,01,08,53,8.00
2020,02,01,08,54,8.00
2020,02,01,08,55,8.00
2020,02,01,08,56,8.00
2020,02,01,08,57,8.00
2020,02,01,08,58,8.00
2020,02,01,08,59,8.00
2020,02,01,09,00,8.00
2020,02,01,09,01,8.00
2020,02,01,09,02,8.00
2020,02,01,09,03,8.00
2020,02,01,09,04,8.10
2020,02,01,09,05,8.10
2020,02,01,09,06,8.20
2020,02,01,09,07,8.20
2020,02,01,09,08,8.20
2020,02,01,09,09,8.20
2020,02,01,09,10,8.20
2020,02,01,09,11,8.20
2020,02,01,09,12,8.20
2020,02,01,09,13,8.20
2020,02,01,09,14,8.20
2020,02,01,09,15,8.20
2020,02,01,09,16,8.30
2020,02,01,09,17,8.30
2020,02,01,09,18,8.30
2020,02,01,09,19,8.30
2020,02,01,09,20,8.20
2020,02,01,09,21,8.30
2020,02,01,09,22,8.20
2020,02,01,09,23,8.20
2020,02,01,09,24,8.20
2020,02,01,09,25,8.20
2020,02,01,09,26,8.20
2020,02,01,09,27,8.20
2020,02,01,09,28,8.20
2020,02,01,09,29,8.20
2020,02,01,09,30,8.20
2020,02,01,09,31,8.20
2020,02,01,09,32,8.20
2020,02,01,09,33,8.30
2020,02,01,09,34,8.30
2020,02,01,09,35,8.30
2020,02,01,09,36,8.30
2020,02,01,09,37,8.30
2020,02,01,09,38,8.30
2020,02,01,09,39,8.30
2020,02,01,09,40,8.30
2020,02,01,09,41,8.30
2020,02,01,09,42,8.30
2020,02,01,09,43,8.30
2020,02,01,09,44,8.30
2020,02,01,09,45,8.30
2020,02,01,09,46,8.30
2020,02,01,09,47,8.30
2020,02,01,09,48,8.30
2020,02,01,09,49,8.30
2020,02,01,09,50,8.30
2020,02,01,09,51,8.40
2020,02,01,09,52,8.40
2020,02,01,09,53,8.40
2020,02,01,09,54,8.40
2020,02,01,09,55,8.40
2020,02,01,09,56,8.50
2020,02,01,09,57,8.50
2020,02,01,09,58,8.60
2020,02,01,09,59,8.60
2020,02,01,10,00,8.70
2020,02,01,10,01,8.70
2020,02,01,10,02,8.70
2020,02,01,10,03,8.70
2020,02,01,10,04,8.80
2020,02,01,10,05,8.80
2020,02,01,10,06,8.80
2020,02,01,10,07,8.80
2020,02,01,10,08,8.80
2020,02,01,10,09,8.80
2020,02,01,10,10,8.80
2020,02,01,10,11,8.80
2020,02,01,10,12,8.80
2020,02,01,10,13,8.80
2020,02,01,10,14,8.80
2020,02,01,10,15,8.80
2020,02,01,10,16,8.80
2020,02,01,10,17,8.80
2020,02,01,10,18,8.80
2020,02,01,10,19,8.80
2020,02,01,10,20,8.80
2020,02,01,10,21,8.80
2020,02,01,10,22,8.80
2020,02,01,10,23,8.80
2020,02,01,10,24,8.80
2020,02,01,10,25,8.70
2020,02,01,10,26,8.70
2020,02,01,10,27,8.70
2020,02,01,10,28,8.70
2020,02,01,10,29,8.60
2020,02,01,10,30,8.60
2020,02,01,10,31,8.60
2020,02,01,10,32,8.60
2020,02,01,10,33,8.60
2020,02,01,10,34,8.60
2020,02,01,10,35,8.60
2020,02,01,10,36,8.50
2020,02,01,10,37,8.50
2020,02,01,10,38,8.50
2020,02,01,10,39,8.50
2020,02,01,10,40,8.50
2020,02,01,10,41,8.50
2020,02,01,10,42,8.50
2020,02,01,10,43,8.50
2020,02,01,10,44,8.50
2020,02,01,10,45,8.50
2020,02,01,10,46,8.50
2020,02,01,10,47,8.50
2020,02,01,10,48,8.50
2020,02,01,10,49,8.50
2020,02,01,10,50,8.50
2020,02,01,10,51,8.50
2020,02,01,10,52,8.50
2020,02,01,10,53,8.50
2020,02,01,10,54,8.50
2020,02,01,10,55,8.50
2020,02,01,10,56,8.50
2020,02,01,10,57,8.60
2020,02,01,10,58,8.60
2020,02,01,10,59,8.60
2020,02,01,11,00,8.60
2020,02,01,11,01,8.50
2020,02,01,11,02,8.50
2020,02,01,11,03,8.50
2020,02,01,11,04,8.50
2020,02,01,11,05,8.60
2020,02,01,11,06,8.60
2020,02,01,11,07,8.60
2020,02,01,11,08,8.60
2020,02,01,11,09,8.60
2020,02,01,11,10,8.60
2020,02,01,11,11,8.60
2020,02,01,11,12,8.60
2020,02,01,11,13,8.60
2020,02,01,11,14,8.50
2020,02,01,11,15,8.50
2020,02,01,11,16,8.50
2020,02,01,11,17,8.50
2020,02,01,11,18,8.50
2020,02,01,11,19,8.50
2020,02,01,11,20,8.50
2020,02,01,11,21,8.50
2020,02,01,11,22,8.50
2020,02,01,11,23,8.40
2020,02,01,11,24,8.40
2020,02,01,11,25,8.40
2020,02,01,11,26,8.40
2020,02,01,11,27,8.50
2020,02,01,11,28,8.50
2020,02,01,11,29,8.50
2020,02,01,11,30,8.50
2020,02,01,11,31,8.60
2020,02,01,11,32,8.60
2020,02,01,11,33,8.60
2020,02,01,11,34,8.60
2020,02,01,11,35,8.60
2020,02,01,11,36,8.60
2020,02,01,11,37,8.60
2020,02,01,11,38,8.60
2020,02,01,11,39,8.50
2020,02,01,11,40,8.50
2020,02,01,11,41,8.40
2020,02,01,11,42,8.40
2020,02,01,11,43,8.30
2020,02,01,11,44,8.30
2020,02,01,11,45,8.30
2020,02,01,11,46,8.20
2020,02,01,11,47,8.20
2020,02,01,11,48,8.20
2020,02,01,11,49,8.20
2020,02,01,11,50,8.20
2020,02,01,11,51,8.30
2020,02,01,11,52,8.30
2020,02,01,11,53,8.40
2020,02,01,11,54,8.40
2020,02,01,11,55,8.50
2020,02,01,11,56,8.50
2020,02,01,11,57,8.50
2020,02,01,11,58,8.50
2020,02,01,11,59,8.50
2020,02,01,12,00,8.50
2020,02,01,12,01,8.60
2020,02,01,12,02,8.60
2020,02,01,12,03,8.60
2020,02,01,12,04,8.60
2020,02,01,12,05,8.60
2020,02,01,12,06,8.60
2020,02,01,12,07,8.50
2020,02,01,12,08,8.50
2020,02,01,12,09,8.50
2020,02,01,12,10,8.50
2020,02,01,12,11,8.40
2020,02,01,12,12,8.40
2020,02,01,12,13,8.40
2020,02,01,12,14,8.40
2020,02,01,12,15,8.40
2020,02,01,12,16,8.40
2020,02,01,12,17,8.40
2020,02,01,12,18,8.40
2020,02,01,12,19,8.40
2020,02,01,12,20,8.40
2020,02,01,12,21,8.40
2020,02,01,12,22,8.40
2020,02,01,12,23,8.30
2020,02,01,12,24,8.40
2020,02,01,12,25,8.40
2020,02,01,12,26,8.40
2020,02,01,12,27,8.40
2020,02,01,12,28,8.40
2020,02,01,12,29,8.40
2020,02,01,12,30,8.50
2020,02,01,12,31,8.50
2020,02,01,12,32,8.50
2020,02,01,12,33,8.50
2020,02,01,12,34,8.60
2020,02,01,12,35,8.60
2020,02,01,12,36,8.60
2020,02,01,12,37,8.60
2020,02,01,12,38,8.60
2020,02,01,12,39,8.60
2020,02,01,12,40,8.60
2020,02,01,12,41,8.60
2020,02,01,12,42,8.60
2020,02,01,12,43,8.60
2020,02,01,12,44,8.60
2020,02,01,12,45,8.60
2020,02,01,12,46,8.60
2020,02,01,12,47,8.60
2020,02,01,12,48,8.60
2020,02,01,12,49,8.60
2020,02,01,12,50,8.60
2020,02,01,12,51,8.60
2020,02,01,12,52,8.50
2020,02,01,12,53,8.50
2020,02,01,12,54,8.50
2020,02,01,12,55,8.50
2020,02,01,12,56,8.50
2020,02,01,12,57,8.60
2020,02,01,12,58,8.60
2020,02,01,12,59,8.60
2020,02,01,13,00,8.60
2020,02,01,13,01,8.70
2020,02,01,13,02,8.70
2020,02,01,13,03,8.70
2020,02,01,13,04,8.80
2020,02,01,13,05,8.80
2020,02,01,13,06,8.80
2020,02,01,13,07,8.80
2020,02,01,13,08,8.90
2020,02,01,13,09,8.90
2020,02,01,13,10,8.90
2020,02,01,13,11,8.90
2020,02,01,13,12,8.90
2020,02,01,13,13,8.90
2020,02,01,13,14,8.80
2020,02,01,13,15,8.80
2020,02,01,13,16,8.80
2020,02,01,13,17,8.80
2020,02,01,13,18,8.90
2020,02,01,13,19,8.90
2020,02,01,13,20,8.90
2020,02,01,13,21,8.90
2020,02,01,13,22,8.80
2020,02,01,13,23,8.80
2020,02,01,13,24,8.80
2020,02,01,13,25,8.80
2020,02,01,13,26,8.80
2020,02,01,13,27,8.80
2020,02,01,13,28,8.80
2020,02,01,13,29,8.80
2020,02,01,13,30,8.70
2020,02,01,13,31,8.70
2020,02,01,13,32,8.70
2020,02,01,13,33,8.70
2020,02,01,13,34,8.60
2020,02,01,13,35,8.60
2020,02,01,13,36,8.60
2020,02,01,13,37,8.50
2020,02,01,13,38,8.50
2020,02,01,13,39,8.50
2020,02,01,13,40,8.40
2020,02,01,13,41,8.40
2020,02,01,13,42,8.30
2020,02,01,13,43,8.30
2020,02,01,13,44,8.30
2020,02,01,13,45,8.30
2020,02,01,13,46,8.30
2020,02,01,13,47,8.30
2020,02,01,13,48,8.30
2020,02,01,13,49,8.20
2020,02,01,13,50,8.20
2020,02,01,13,51,8.20
2020,02,01,13,52,8.20
2020,02,01,13,53,8.10
2020,02,01,13,54,8.10
2020,02,01,13,55,8.10
2020,02,01,13,56,8.10
2020,02,01,13,57,8.00
2020,02,01,13,58,8.00
2020,02,01,13,59,7.90
2020,02,01,14,00,7.90
2020,02,01,14,01,7.80
2020,02,01,14,02,7.80
2020,02,01,14,03,7.80
2020,02,01,14,04,7.70
2020,02,01,14,05,7.70
2020,02,01,14,06,7.60
2020,02,01,14,07,7.60
2020,02,01,14,08,7.60
2020,02,01,14,09,7.50
2020,02,01,14,10,7.50
2020,02,01,14,11,7.40
2020,02,01,14,12,7.40
2020,02,01,14,13,7.40
2020,02,01,14,14,7.40
2020,02,01,14,15,7.40
2020,02,01,14,16,7.40
2020,02,01,14,17,7.40
2020,02,01,14,18,7.40
2020,02,01,14,19,7.40
2020,02,01,14,20,7.40
2020,02,01,14,21,7.30
2020,02,01,14,22,7.40
2020,02,01,14,23,7.30
2020,02,01,14,24,7.40
2020,02,01,14,25,7.40
2020,02,01,14,26,7.40
2020,02,01,14,27,7.40
2020,02,01,14,28,7.30
2020,02,01,14,29,7.30
2020,02,01,14,30,7.30
2020,02,01,14,31,7.30
2020,02,01,14,32,7.30
2020,02,01,14,33,7.30
2020,02,01,14,34,7.30
2020,02,01,14,35,7.20
2020,02,01,14,36,7.30
2020,02,01,14,37,7.30
2020,02,01,14,38,7.30
2020,02,01,14,39,7.30
2020,02,01,14,40,7.30
2020,02,01,14,41,7.30
2020,02,01,14,42,7.30
2020,02,01,14,43,7.30
2020,02,01,14,44,7.30
2020,02,01,14,45,7.30
2020,02,01,14,46,7.20
2020,02,01,14,47,7.20
2020,02,01,14,48,7.20
2020,02,01,14,49,7.20
2020,02,01,14,50,7.20
2020,02,01,14,51,7.20
2020,02,01,14,52,7.20
2020,02,01,14,53,7.20
2020,02,01,14,54,7.20
2020,02,01,14,55,7.20
2020,02,01,14,56,7.20
2020,02,01,14,57,7.20
2020,02,01,14,58,7.20
2020,02,01,14,59,7.20
2020,02,01,15,00,7.20
2020,02,01,15,01,7.20
2020,02,01,15,02,7.20
2020,02,01,15,03,7.30
2020,02,01,15,04,7.30
2020,02,01,15,05,7.30
2020,02,01,15,06,7.30
2020,02,01,15,07,7.30
2020,02,01,15,08,7.20
2020,02,01,15,09,7.20
2020,02,01,15,10,7.20
2020,02,01,15,11,7.10
2020,02,01,15,12,7.00
2020,02,01,15,13,7.00
2020,02,01,15,14,6.90
2020,02,01,15,15,6.80
2020,02,01,15,16,6.80
2020,02,01,15,17,6.80
2020,02,01,15,18,6.80
2020,02,01,15,19,6.80
2020,02,01,15,20,6.80
2020,02,01,15,21,6.80
2020,02,01,15,22,6.80
2020,02,01,15,23,6.80
2020,02,01,15,24,6.80
2020,02,01,15,25,6.80
2020,02,01,15,26,6.80
2020,02,01,15,27,6.80
2020,02,01,15,28,6.80
2020,02,01,15,29,6.80
2020,02,01,15,30,6.90
2020,02,01,15,31,6.90
2020,02,01,15,32,6.90
2020,02,01,15,33,6.90
2020,02,01,15,34,6.90
2020,02,01,15,35,6.90
2020,02,01,15,36,6.90
2020,02,01,15,37,6.90
2020,02,01,15,38,6.90
2020,02,01,15,39,6.90
2020,02,01,15,40,6.90
2020,02,01,15,41,6.90
2020,02,01,15,42,6.90
2020,02,01,15,43,6.90
2020,02,01,15,44,6.90
2020,02,01,15,45,6.80
2020,02,01,15,46,6.80
2020,02,01,15,47,6.80
2020,02,01,15,48,6.70
2020,02,01,15,49,6.70
2020,02,01,15,50,6.70
2020,02,01,15,51,6.70
2020,02,01,15,52,6.70
2020,02,01,15,53,6.70
2020,02,01,15,54,6.70
2020,02,01,15,55,6.70
2020,02,01,15,56,6.60
2020,02,01,15,57,6.60
2020,02,01,15,58,6.60
2020,02,01,15,59,6.60
2020,02,01,16,00,6.60
2020,02,01,16,01,6.60
2020,02,01,16,02,6.60
2020,02,01,16,03,6.50
2020,02,01,16,04,6.50
2020,02,01,16,05,6.50
2020,02,01,16,06,6.60
2020,02,01,16,07,6.60
2020,02,01,16,08,6.60
2020,02,01,16,09,6.50
2020,02,01,16,10,6.50
2020,02,01,16,11,6.60
2020,02,01,16,12,6.50
2020,02,01,16,13,6.50
2020,02,01,16,14,6.50
2020,02,01,16,15,6.50
2020,02,01,16,16,6.40
2020,02,01,16,17,6.40
2020,02,01,16,18,6.30
2020,02,01,16,19,6.30
2020,02,01,16,20,6.30
2020,02,01,16,21,6.20
2020,02,01,16,22,6.20
2020,02,01,16,23,6.20
2020,02,01,16,24,6.20
2020,02,01,16,25,6.10
2020,02,01,16,26,6.10
2020,02,01,16,27,6.10
2020,02,01,16,28,6.00
2020,02,01,16,29,6.00
2020,02,01,16,30,5.90
2020,02,01,16,31,5.90
2020,02,01,16,32,5.80
2020,02,01,16,33,5.80
2020,02,01,16,34,5.80
2020,02,01,16,35,5.80
2020,02,01,16,36,5.80
2020,02,01,16,37,5.70
2020,02,01,16,38,5.70
2020,02,01,16,39,5.70
2020,02,01,16,40,5.70
2020,02,01,16,41,5.70
2020,02,01,16,42,5.70
2020,02,01,16,43,5.70
2020,02,01,16,44,5.70
2020,02,01,16,45,5.70
2020,02,01,16,46,5.70
2020,02,01,16,47,5.60
2020,02,01,16,48,5.60
2020,02,01,16,49,5.50
2020,02,01,16,50,5.50
2020,02,01,16,51,5.40
2020,02,01,16,52,5.30
2020,02,01,16,53,5.30
2020,02,01,16,54,5.20
2020,02,01,16,55,5.10
2020,02,01,16,56,5.00
2020,02,01,16,57,4.90
2020,02,01,16,58,4.90
2020,02,01,16,59,4.80
2020,02,01,17,00,4.80
2020,02,01,17,01,4.70
2020,02,01,17,02,4.70
2020,02,01,17,03,4.60
2020,02,01,17,04,4.60
2020,02,01,17,05,4.50
2020,02,01,17,06,4.50
2020,02,01,17,07,4.40
2020,02,01,17,08,4.40
2020,02,01,17,09,4.30
2020,02,01,17,10,4.30
2020,02,01,17,11,4.30
2020,02,01,17,12,4.30
2020,02,01,17,13,4.20
2020,02,01,17,14,4.20
2020,02,01,17,15,4.20
2020,02,01,17,16,4.10
2020,02,01,17,17,4.10
2020,02,01,17,18,4.00
2020,02,01,17,19,4.00
2020,02,01,17,20,3.90
2020,02,01,17,21,3.90
2020,02,01,17,22,3.80
2020,02,01,17,23,3.80
2020,02,01,17,24,3.80
2020,02,01,17,25,3.90
2020,02,01,17,26,3.90
2020,02,01,17,27,3.80
2020,02,01,17,28,3.80
2020,02,01,17,29,3.80
2020,02,01,17,30,3.80
2020,02,01,17,31,3.80
2020,02,01,17,32,3.80
2020,02,01,17,33,3.80
2020,02,01,17,34,3.70
2020,02,01,17,35,3.70
2020,02,01,17,36,3.70
2020,02,01,17,37,3.60
2020,02,01,17,38,3.60
2020,02,01,17,39,3.60
2020,02,01,17,40,3.50
2020,02,01,17,41,3.50
2020,02,01,17,42,3.50
2020,02,01,17,43,3.50
2020,02,01,17,44,3.40
2020,02,01,17,45,3.40
2020,02,01,17,46,3.30
2020,02,01,17,47,3.30
2020,02,01,17,48,3.30